| time (UTC) | temp C | wind direction | speed KPH | gust KPH | rain 1hr cm | rain 24hr cm | rain mn cm | humidity % | barometer mb |
| 20260508220703 | 20 | 250 | 11.3 | 12.9 | 0.00 | 0.00 | 0.00 | 43 | 1009.3 |
| 20260508220004 | 20 | 260 | 0.0 | 12.9 | 0.00 | 0.00 | 0.00 | 43 | 1009.1 |
| 20260508215603 | 20 | 266 | 1.6 | 12.9 | 0.00 | 0.00 | 0.00 | 44 | 1009.2 |
| 20260508214903 | 21 | 270 | 3.2 | 12.9 | 0.00 | 0.00 | 0.00 | 43 | 1009.1 |
| 20260508214204 | 21 | 264 | 8.0 | 12.9 | 0.00 | 0.00 | 0.00 | 43 | 1009.0 |
| 20260508213717 | 21 | 237 | 1.6 | 11.3 | 0.00 | 0.00 | 0.00 | 41 | 1008.9 |
| 20260508212803 | 21 | 263 | 4.8 | 12.9 | 0.00 | 0.00 | 0.00 | 42 | 1008.9 |
| 20260508212103 | 21 | 264 | 4.8 | 12.9 | 0.00 | 0.00 | 0.00 | 42 | 1008.7 |
| 20260508211404 | 21 | 288 | 1.6 | 12.9 | 0.00 | 0.00 | 0.00 | 41 | 1008.8 |
| 20260508210704 | 20 | 250 | 0.0 | 14.5 | 0.00 | 0.00 | 0.00 | 40 | 1009.0 |
| 20260508210004 | 20 | 250 | 6.4 | 14.5 | 0.00 | 0.00 | 0.00 | 41 | 1009.0 |
| 20260508205603 | 20 | 246 | 3.2 | 14.5 | 0.00 | 0.00 | 0.00 | 41 | 1009.1 |
| 20260508204903 | 20 | 265 | 4.8 | 12.9 | 0.00 | 0.00 | 0.00 | 41 | 1009.1 |
| 20260508204203 | 20 | 249 | 8.0 | 12.9 | 0.00 | 0.00 | 0.00 | 41 | 1009.2 |
| 20260508203503 | 20 | 259 | 4.8 | 12.9 | 0.00 | 0.00 | 0.00 | 40 | 1009.3 |
| 20260508202804 | 20 | 268 | 6.4 | 12.9 | 0.00 | 0.00 | 0.00 | 40 | 1009.4 |
| 20260508202104 | 20 | 273 | 1.6 | 12.9 | 0.00 | 0.00 | 0.00 | 41 | 1009.6 |
| 20260508201403 | 20 | 303 | 6.4 | 9.7 | 0.00 | 0.00 | 0.00 | 39 | 1009.7 |
| 20260508200704 | 20 | 327 | 4.8 | 12.9 | 0.00 | 0.00 | 0.00 | 42 | 1009.9 |
| 20260508200218 | 20 | 275 | 4.8 | 12.9 | 0.00 | 0.00 | 0.00 | 40 | 1009.9 |
| 20260508195604 | 20 | 265 | 1.6 | 12.9 | 0.00 | 0.00 | 0.00 | 39 | 1010.0 |
| 20260508195118 | 20 | 255 | 1.6 | 11.3 | 0.00 | 0.00 | 0.00 | 39 | 1010.2 |
| 20260508194204 | 20 | 274 | 4.8 | 16.1 | 0.00 | 0.00 | 0.00 | 41 | 1010.5 |
| 20260508193503 | 20 | 247 | 4.8 | 12.9 | 0.00 | 0.00 | 0.00 | 39 | 1010.5 |
| 20260508192803 | 19 | 266 | 12.9 | 12.9 | 0.00 | 0.00 | 0.00 | 40 | 1010.7 |
| 20260508192103 | 19 | 281 | 4.8 | 11.3 | 0.00 | 0.00 | 0.00 | 42 | 1010.8 |
| 20260508191619 | 19 | 276 | 6.4 | 11.3 | 0.00 | 0.00 | 0.00 | 42 | 1011.0 |
| 20260508190704 | 19 | 284 | 3.2 | 11.3 | 0.00 | 0.00 | 0.00 | 39 | 1010.8 |
| 20260508190004 | 19 | 315 | 1.6 | 9.7 | 0.00 | 0.00 | 0.00 | 42 | 1010.9 |
| 20260508185604 | 18 | 316 | 4.8 | 16.1 | 0.00 | 0.00 | 0.00 | 44 | 1011.0 |
| 20260508184903 | 19 | 290 | 1.6 | 33.8 | 0.00 | 0.00 | 0.00 | 43 | 1011.0 |
| 20260508184203 | 19 | 267 | 8.0 | 33.8 | 0.00 | 0.00 | 0.00 | 41 | 1011.2 |
| 20260508183503 | 18 | 252 | 3.2 | 9.7 | 0.00 | 0.00 | 0.00 | 42 | 1011.3 |
| 20260508182803 | 18 | 301 | 0.0 | 11.3 | 0.00 | 0.00 | 0.00 | 41 | 1011.7 |
| 20260508182103 | 18 | 342 | 8.0 | 11.3 | 0.00 | 0.00 | 0.00 | 44 | 1011.6 |
| 20260508181403 | 18 | 5 | 3.2 | 6.4 | 0.00 | 0.00 | 0.00 | 42 | 1011.5 |
| 20260508180703 | 18 | 291 | 1.6 | 8.0 | 0.00 | 0.00 | 0.00 | 42 | 1011.6 |
| 20260508180004 | 18 | 190 | 1.6 | 9.7 | 0.00 | 0.00 | 0.00 | 42 | 1011.8 |
| 20260508175817 | 18 | 177 | 4.8 | 9.7 | 0.00 | 0.00 | 0.00 | 42 | 1011.8 |
| 20260508174903 | 18 | 274 | 0.0 | 9.7 | 0.00 | 0.00 | 0.00 | 42 | 1012.1 |
| 20260508174203 | 18 | 197 | 0.0 | 8.0 | 0.00 | 0.00 | 0.00 | 41 | 1012.1 |
| 20260508173503 | 18 | 256 | 3.2 | 8.0 | 0.00 | 0.00 | 0.00 | 42 | 1012.3 |
| 20260508173018 | 17 | 275 | 1.6 | 11.3 | 0.00 | 0.00 | 0.00 | 45 | 1012.5 |
| 20260508172103 | 17 | 146 | 4.8 | 14.5 | 0.00 | 0.00 | 0.00 | 44 | 1012.7 |
| 20260508171403 | 17 | 231 | 3.2 | 9.7 | 0.00 | 0.00 | 0.00 | 46 | 1012.8 |
| 20260508170703 | 17 | 297 | 6.4 | 9.7 | 0.00 | 0.00 | 0.00 | 43 | 1012.9 |
| 20260508170003 | 17 | 301 | 1.6 | 12.9 | 0.00 | 0.00 | 0.00 | 43 | 1013.2 |
| 20260508165817 | 17 | 315 | 4.8 | 12.9 | 0.00 | 0.00 | 0.00 | 42 | 1013.2 |
| 20260508164903 | 17 | 272 | 1.6 | 9.7 | 0.00 | 0.00 | 0.00 | 43 | 1013.4 |
| 20260508164203 | 16 | 159 | 1.6 | 9.7 | 0.00 | 0.00 | 0.00 | 43 | 1013.7 |
| 20260508163503 | 16 | 131 | 0.0 | 11.3 | 0.00 | 0.00 | 0.00 | 42 | 1013.8 |
| 20260508162803 | 16 | 111 | 3.2 | 11.3 | 0.00 | 0.00 | 0.00 | 42 | 1013.8 |
| 20260508162103 | 16 | 136 | 4.8 | 9.7 | 0.00 | 0.00 | 0.00 | 46 | 1014.0 |
| 20260508161403 | 16 | 156 | 1.6 | 9.7 | 0.00 | 0.00 | 0.00 | 46 | 1013.9 |
| 20260508160704 | 16 | 177 | 1.6 | 8.0 | 0.00 | 0.00 | 0.00 | 43 | 1014.0 |
| 20260508160004 | 16 | 98 | 3.2 | 8.0 | 0.00 | 0.00 | 0.00 | 43 | 1014.2 |
| 20260508155604 | 16 | 85 | 1.6 | 11.3 | 0.00 | 0.00 | 0.00 | 44 | 1014.2 |
| 20260508154903 | 16 | 351 | 1.6 | 11.3 | 0.00 | 0.00 | 0.00 | 45 | 1014.3 |
| 20260508154203 | 15 | 262 | 0.0 | 8.0 | 0.00 | 0.00 | 0.00 | 42 | 1014.5 |
| 20260508153503 | 15 | 254 | 6.4 | 8.0 | 0.00 | 0.00 | 0.00 | 42 | 1014.6 |
| 20260508152803 | 15 | 199 | 1.6 | 9.7 | 0.00 | 0.00 | 0.00 | 42 | 1014.7 |
| 20260508152104 | 15 | 153 | 3.2 | 9.7 | 0.00 | 0.00 | 0.00 | 41 | 1014.8 |
| 20260508151403 | 15 | 120 | 4.8 | 9.7 | 0.00 | 0.00 | 0.00 | 41 | 1014.8 |
| 20260508150703 | 14 | 17 | 1.6 | 4.8 | 0.00 | 0.00 | 0.00 | 46 | 1014.8 |
| 20260508150005 | 13 | 15 | 0.0 | 4.8 | 0.00 | 0.00 | 0.00 | 47 | 1015.0 |
| 20260508145604 | 13 | 24 | 1.6 | 4.8 | 0.00 | 0.00 | 0.00 | 52 | 1014.9 |
| 20260508144904 | 13 | 33 | 0.0 | 4.8 | 0.00 | 0.00 | 0.00 | 56 | 1014.7 |
| 20260508144204 | 13 | 72 | 1.6 | 4.8 | 0.00 | 0.00 | 0.00 | 51 | 1014.4 |
| 20260508143718 | 12 | 48 | 3.2 | 4.8 | 0.00 | 0.00 | 0.00 | 50 | 1014.9 |
| 20260508142804 | 12 | 308 | 0.0 | 4.8 | 0.00 | 0.00 | 0.00 | 59 | 1015.3 |
| 20260508142319 | 12 | 320 | 1.6 | 4.8 | 0.00 | 0.00 | 0.00 | 70 | 1015.4 |
| 20260508141404 | 11 | 337 | 3.2 | 4.8 | 0.00 | 0.00 | 0.00 | 78 | 1015.7 |
| 20260508140704 | 10 | 354 | 3.2 | 4.8 | 0.00 | 0.00 | 0.00 | 88 | 1015.7 |
| 20260508140004 | 10 | 326 | 3.2 | 4.8 | 0.00 | 0.00 | 0.00 | 97 | 1015.8 |
| 20260508135604 | 9 | 347 | 3.2 | 4.8 | 0.00 | 0.00 | 0.00 | 99 | 1016.1 |
| 20260508134903 | 9 | 88 | 0.0 | 3.2 | 0.00 | 0.00 | 0.00 | 99 | 1016.3 |
| 20260508134204 | 8 | 106 | 0.0 | 3.2 | 0.00 | 0.00 | 0.00 | 99 | 1016.4 |
| 20260508133504 | 8 | 55 | 0.0 | 3.2 | 0.00 | 0.00 | 0.00 | 99 | 1016.5 |
| 20260508132804 | 8 | 75 | 0.0 | 3.2 | 0.00 | 0.00 | 0.00 | 99 | 1016.5 |
| 20260508132104 | 7 | 74 | 1.6 | 3.2 | 0.00 | 0.00 | 0.00 | 99 | 1016.5 |
| 20260508131404 | 7 | 92 | 0.0 | 3.2 | 0.00 | 0.00 | 0.00 | 99 | 1016.6 |
| 20260508130704 | 7 | 97 | 1.6 | 3.2 | 0.00 | 0.00 | 0.00 | 99 | 1016.7 |
| 20260508130004 | 7 | 41 | 0.0 | 3.2 | 0.00 | 0.00 | 0.00 | 99 | 1016.8 |
| 20260508125604 | 7 | 42 | 0.0 | 3.2 | 0.00 | 0.00 | 0.00 | 99 | 1016.8 |
| 20260508125117 | 7 | 66 | 1.6 | 3.2 | 0.00 | 0.00 | 0.00 | 99 | 1016.6 |
| 20260508124204 | 7 | 71 | 1.6 | 3.2 | 0.00 | 0.00 | 0.00 | 99 | 1016.7 |
| 20260508123718 | 7 | 71 | 0.0 | 3.2 | 0.00 | 0.00 | 0.00 | 99 | 1016.7 |
| 20260508122804 | 6 | 109 | 1.6 | 4.8 | 0.00 | 0.00 | 0.00 | 99 | 1016.4 |
| 20260508122104 | 6 | 36 | 3.2 | 4.8 | 0.00 | 0.00 | 0.00 | 99 | 1016.4 |
| 20260508121404 | 6 | 31 | 1.6 | 4.8 | 0.00 | 0.00 | 0.00 | 99 | 1016.4 |
| 20260508120704 | 6 | 82 | 1.6 | 3.2 | 0.00 | 0.00 | 0.00 | 99 | 1016.3 |
| 20260508120005 | 6 | 63 | 0.0 | 3.2 | 0.00 | 0.00 | 0.00 | 99 | 1016.3 |
| 20260508115604 | 6 | 41 | 3.2 | 4.8 | 0.00 | 0.00 | 0.00 | 99 | 1016.3 |
| 20260508114904 | 6 | 30 | 3.2 | 4.8 | 0.00 | 0.00 | 0.00 | 99 | 1016.2 |
| 20260508114204 | 6 | 36 | 1.6 | 3.2 | 0.00 | 0.00 | 0.00 | 99 | 1016.1 |
| 20260508113504 | 6 | 28 | 0.0 | 3.2 | 0.00 | 0.00 | 0.00 | 99 | 1016.1 |
| 20260508112804 | 6 | 23 | 1.6 | 4.8 | 0.00 | 0.00 | 0.00 | 99 | 1015.9 |
| 20260508112104 | 6 | 25 | 1.6 | 4.8 | 0.00 | 0.00 | 0.00 | 99 | 1015.8 |
| 20260508111404 | 6 | 44 | 0.0 | 3.2 | 0.00 | 0.00 | 0.00 | 99 | 1015.6 |
| 20260508110703 | 6 | 35 | 0.0 | 3.2 | 0.00 | 0.00 | 0.00 | 99 | 1015.7 |
| 20260508110004 | 6 | 35 | 0.0 | 3.2 | 0.00 | 0.00 | 0.00 | 99 | 1015.6 |
| 20260508105604 | 6 | 47 | 0.0 | 3.2 | 0.00 | 0.00 | 0.00 | 99 | 1015.6 |
| 20260508104904 | 6 | 36 | 1.6 | 3.2 | 0.00 | 0.00 | 0.00 | 99 | 1015.5 |
| 20260508104204 | 6 | 30 | 1.6 | 3.2 | 0.00 | 0.00 | 0.00 | 99 | 1015.6 |
| 20260508103504 | 6 | 20 | 1.6 | 3.2 | 0.00 | 0.00 | 0.00 | 99 | 1015.5 |
| 20260508102804 | 6 | 21 | 1.6 | 3.2 | 0.00 | 0.00 | 0.00 | 99 | 1015.5 |
| 20260508102104 | 6 | 35 | 0.0 | 3.2 | 0.00 | 0.00 | 0.00 | 99 | 1015.3 |
| 20260508101617 | 6 | 50 | 1.6 | 3.2 | 0.00 | 0.00 | 0.00 | 99 | 1015.2 |
| 20260508100918 | 6 | 68 | 0.0 | 3.2 | 0.00 | 0.00 | 0.00 | 99 | 1015.1 |
| 20260508100004 | 6 | 79 | 0.0 | 3.2 | 0.00 | 0.03 | 0.00 | 99 | 1014.9 |
| 20260508095604 | 6 | 50 | 0.0 | 3.2 | 0.00 | 0.03 | 0.00 | 99 | 1014.9 |
| 20260508094904 | 6 | 51 | 1.6 | 3.2 | 0.00 | 0.03 | 0.00 | 99 | 1014.9 |
| 20260508094204 | 6 | 47 | 1.6 | 3.2 | 0.00 | 0.03 | 0.00 | 99 | 1014.8 |
| 20260508093504 | 7 | 16 | 0.0 | 4.8 | 0.00 | 0.03 | 0.00 | 99 | 1014.8 |
| 20260508092804 | 7 | 11 | 1.6 | 4.8 | 0.00 | 0.03 | 0.00 | 99 | 1014.8 |
| 20260508092104 | 7 | 25 | 1.6 | 4.8 | 0.00 | 0.03 | 0.00 | 99 | 1014.8 |
| 20260508091619 | 7 | 43 | 1.6 | 3.2 | 0.00 | 0.03 | 0.00 | 99 | 1014.8 |
| 20260508090704 | 7 | 21 | 0.0 | 3.2 | 0.00 | 0.03 | 0.00 | 99 | 1014.8 |
| 20260508090004 | 7 | 30 | 0.0 | 3.2 | 0.00 | 0.05 | 0.00 | 99 | 1014.6 |
| 20260508085603 | 8 | 33 | 3.2 | 3.2 | 0.00 | 0.08 | 0.00 | 99 | 1014.6 |
| 20260508084904 | 8 | 32 | 3.2 | 3.2 | 0.00 | 0.10 | 0.00 | 99 | 1014.5 |
| 20260508084204 | 8 | 26 | 0.0 | 3.2 | 0.00 | 0.10 | 0.00 | 99 | 1014.6 |
| 20260508083504 | 8 | 38 | 3.2 | 3.2 | 0.00 | 0.10 | 0.00 | 99 | 1014.4 |
| 20260508082804 | 8 | 28 | 1.6 | 3.2 | 0.00 | 0.10 | 0.00 | 99 | 1014.5 |
| 20260508082104 | 8 | 20 | 3.2 | 3.2 | 0.00 | 0.10 | 0.00 | 99 | 1014.6 |
| 20260508081404 | 8 | 29 | 0.0 | 3.2 | 0.00 | 0.10 | 0.00 | 99 | 1014.6 |
| 20260508080704 | 8 | 26 | 3.2 | 3.2 | 0.00 | 0.13 | 0.00 | 99 | 1014.5 |
| 20260508080004 | 8 | 25 | 0.0 | 3.2 | 0.00 | 0.13 | 0.00 | 99 | 1014.6 |
| 20260508075604 | 8 | 23 | 0.0 | 3.2 | 0.00 | 0.13 | 0.00 | 99 | 1014.6 |
| 20260508074904 | 8 | 11 | 1.6 | 3.2 | 0.00 | 0.13 | 0.00 | 99 | 1014.4 |
| 20260508074204 | 8 | 6 | 0.0 | 3.2 | 0.00 | 0.13 | 0.00 | 99 | 1014.3 |
| 20260508073504 | 8 | 20 | 0.0 | 3.2 | 0.00 | 0.13 | 0.00 | 99 | 1014.4 |
| 20260508072804 | 8 | 23 | 1.6 | 3.2 | 0.00 | 0.13 | 0.00 | 99 | 1014.3 |
| 20260508072104 | 8 | 27 | 0.0 | 3.2 | 0.00 | 0.13 | 0.00 | 99 | 1014.4 |
| 20260508071404 | 8 | 29 | 3.2 | 3.2 | 0.00 | 0.13 | 0.00 | 99 | 1014.2 |
| 20260508070919 | 9 | 26 | 1.6 | 4.8 | 0.00 | 0.13 | 0.00 | 99 | 1014.3 |
| 20260508070004 | 9 | 22 | 3.2 | 4.8 | 0.00 | 0.13 | 0.00 | 99 | 1014.4 |
| 20260508065604 | 9 | 20 | 0.0 | 6.4 | 0.00 | 0.13 | 0.00 | 99 | 1014.3 |
| 20260508064904 | 9 | 23 | 1.6 | 6.4 | 0.00 | 0.13 | 0.00 | 99 | 1014.3 |
| 20260508064204 | 9 | 33 | 0.0 | 4.8 | 0.00 | 0.13 | 0.00 | 99 | 1014.2 |
| 20260508063717 | 9 | 42 | 3.2 | 4.8 | 0.00 | 0.13 | 0.00 | 99 | 1014.3 |
| 20260508063018 | 9 | 40 | 3.2 | 4.8 | 0.00 | 0.13 | 0.00 | 99 | 1014.2 |
| 20260508062318 | 10 | 30 | 3.2 | 4.8 | 0.00 | 0.13 | 0.00 | 99 | 1014.3 |
| 20260508061404 | 10 | 22 | 0.0 | 4.8 | 0.00 | 0.13 | 0.00 | 99 | 1014.3 |
| 20260508060704 | 10 | 21 | 0.0 | 4.8 | 0.00 | 0.13 | 0.00 | 99 | 1014.3 |
| 20260508060004 | 10 | 29 | 1.6 | 4.8 | 0.00 | 0.13 | 0.00 | 99 | 1014.2 |
| 20260508055604 | 10 | 28 | 3.2 | 4.8 | 0.00 | 0.13 | 0.00 | 99 | 1014.3 |
| 20260508054904 | 10 | 11 | 1.6 | 3.2 | 0.00 | 0.15 | 0.00 | 99 | 1014.4 |
| 20260508054204 | 10 | 13 | 1.6 | 1.6 | 0.00 | 0.18 | 0.00 | 99 | 1014.4 |
| 20260508053504 | 10 | 34 | 0.0 | 3.2 | 0.00 | 0.20 | 0.00 | 99 | 1014.4 |
| 20260508052804 | 10 | 24 | 1.6 | 3.2 | 0.00 | 0.20 | 0.00 | 99 | 1014.2 |
| 20260508052104 | 10 | 8 | 0.0 | 1.6 | 0.00 | 0.20 | 0.00 | 99 | 1014.0 |
| 20260508051404 | 10 | 5 | 1.6 | 3.2 | 0.00 | 0.20 | 0.00 | 99 | 1014.2 |
| 20260508050704 | 10 | 4 | 0.0 | 3.2 | 0.00 | 0.20 | 0.00 | 99 | 1014.2 |
| 20260508050218 | 10 | 2 | 1.6 | 3.2 | 0.00 | 0.20 | 0.00 | 99 | 1014.2 |
| 20260508045604 | 10 | 4 | 0.0 | 3.2 | 0.00 | 0.20 | 0.00 | 99 | 1014.0 |
| 20260508044904 | 10 | 358 | 1.6 | 3.2 | 0.00 | 0.20 | 0.00 | 99 | 1014.0 |
| 20260508044204 | 10 | 17 | 1.6 | 3.2 | 0.00 | 0.20 | 0.00 | 99 | 1014.0 |
| 20260508043504 | 10 | 26 | 1.6 | 3.2 | 0.00 | 0.20 | 0.00 | 99 | 1013.9 |
| 20260508042804 | 10 | 10 | 1.6 | 3.2 | 0.00 | 0.20 | 0.00 | 99 | 1013.9 |
| 20260508042319 | 10 | 4 | 1.6 | 3.2 | 0.00 | 0.20 | 0.00 | 99 | 1013.7 |
| 20260508041404 | 10 | 3 | 0.0 | 3.2 | 0.00 | 0.20 | 0.00 | 99 | 1013.8 |
| 20260508040704 | 10 | 14 | 3.2 | 3.2 | 0.00 | 0.20 | 0.00 | 99 | 1013.7 |
| 20260508040007 | 10 | 20 | 0.0 | 3.2 | 0.00 | 0.20 | 0.00 | 99 | 1013.7 |
| 20260508035604 | 10 | 33 | 3.2 | 3.2 | 0.00 | 0.20 | 0.20 | 99 | 1013.7 |
| 20260508034904 | 10 | 33 | 1.6 | 3.2 | 0.00 | 0.20 | 0.20 | 99 | 1013.7 |
| 20260508034418 | 10 | 25 | 3.2 | 3.2 | 0.00 | 0.20 | 0.20 | 99 | 1013.6 |
| 20260508033504 | 10 | 29 | 0.0 | 3.2 | 0.00 | 0.23 | 0.20 | 99 | 1013.4 |
| 20260508032804 | 10 | 17 | 1.6 | 3.2 | 0.00 | 0.23 | 0.20 | 99 | 1013.5 |
| 20260508032104 | 10 | 8 | 1.6 | 3.2 | 0.00 | 0.23 | 0.20 | 99 | 1013.5 |
| 20260508031404 | 10 | 12 | 3.2 | 3.2 | 0.00 | 0.23 | 0.20 | 99 | 1013.7 |
| 20260508030704 | 10 | 15 | 0.0 | 3.2 | 0.00 | 0.23 | 0.20 | 99 | 1013.8 |
| 20260508030004 | 10 | 15 | 0.0 | 3.2 | 0.00 | 0.23 | 0.20 | 99 | 1013.7 |
| 20260508025604 | 10 | 20 | 0.0 | 3.2 | 0.00 | 0.23 | 0.20 | 99 | 1013.7 |
| 20260508024904 | 10 | 31 | 0.0 | 3.2 | 0.00 | 0.23 | 0.20 | 99 | 1013.5 |
| 20260508024418 | 10 | 16 | 0.0 | 3.2 | 0.00 | 0.23 | 0.20 | 99 | 1013.4 |
| 20260508023504 | 10 | 359 | 1.6 | 3.2 | 0.00 | 0.23 | 0.20 | 99 | 1013.3 |
| 20260508022804 | 10 | 5 | 0.0 | 3.2 | 0.00 | 0.23 | 0.20 | 99 | 1013.2 |
| 20260508022104 | 10 | 7 | 0.0 | 4.8 | 0.00 | 0.23 | 0.20 | 99 | 1013.0 |
| 20260508021404 | 10 | 9 | 0.0 | 4.8 | 0.00 | 0.23 | 0.20 | 99 | 1012.9 |
| 20260508020704 | 10 | 12 | 1.6 | 3.2 | 0.00 | 0.23 | 0.20 | 98 | 1013.1 |
| 20260508020004 | 10 | 15 | 1.6 | 3.2 | 0.00 | 0.23 | 0.20 | 98 | 1013.0 |
| 20260508015604 | 10 | 11 | 1.6 | 3.2 | 0.00 | 0.23 | 0.20 | 98 | 1012.8 |
| 20260508015117 | 10 | 1 | 1.6 | 3.2 | 0.00 | 0.23 | 0.20 | 98 | 1012.8 |
| 20260508014418 | 10 | 358 | 1.6 | 3.2 | 0.00 | 0.23 | 0.20 | 98 | 1012.6 |
| 20260508013504 | 10 | 18 | 0.0 | 3.2 | 0.00 | 0.25 | 0.20 | 97 | 1012.5 |
| 20260508012804 | 10 | 32 | 0.0 | 3.2 | 0.00 | 0.30 | 0.20 | 96 | 1012.4 |
| 20260508012318 | 10 | 30 | 0.0 | 3.2 | 0.00 | 0.33 | 0.20 | 96 | 1012.4 |
| 20260508011404 | 11 | 17 | 0.0 | 3.2 | 0.00 | 0.38 | 0.20 | 96 | 1012.3 |
| 20260508010704 | 11 | 13 | 0.0 | 4.8 | 0.00 | 0.43 | 0.20 | 95 | 1012.2 |
| 20260508010004 | 11 | 15 | 1.6 | 6.4 | 0.00 | 0.46 | 0.20 | 95 | 1012.0 |
| 20260508005604 | 11 | 17 | 1.6 | 6.4 | 0.00 | 0.46 | 0.20 | 95 | 1012.0 |
| 20260508004904 | 11 | 27 | 3.2 | 4.8 | 0.00 | 0.46 | 0.20 | 94 | 1011.9 |
| 20260508004204 | 11 | 37 | 1.6 | 3.2 | 0.00 | 0.51 | 0.20 | 93 | 1011.8 |
| 20260508003504 | 11 | 31 | 3.2 | 3.2 | 0.00 | 0.61 | 0.20 | 92 | 1011.7 |
| 20260508002804 | 12 | 31 | 0.0 | 3.2 | 0.00 | 0.66 | 0.20 | 91 | 1011.6 |
| 20260508002104 | 12 | 36 | 3.2 | 6.4 | 0.00 | 0.66 | 0.20 | 91 | 1011.5 |
| 20260508001405 | 12 | 43 | 1.6 | 6.4 | 0.00 | 0.66 | 0.20 | 89 | 1011.3 |
| 20260508000704 | 12 | 48 | 3.2 | 4.8 | 0.00 | 0.66 | 0.20 | 88 | 1011.3 |
| 20260508000004 | 12 | 48 | 1.6 | 4.8 | 0.00 | 0.66 | 0.20 | 87 | 1011.3 |
| 20260507235818 | 12 | 42 | 0.0 | 4.8 | 0.00 | 0.66 | 0.20 | 87 | 1011.3 |
| 20260507235119 | 12 | 69 | 0.0 | 4.8 | 0.00 | 0.66 | 0.20 | 87 | 1011.5 |
| 20260507234204 | 13 | 105 | 1.6 | 6.4 | 0.00 | 0.66 | 0.20 | 86 | 1011.4 |
| 20260507233504 | 13 | 106 | 4.8 | 6.4 | 0.00 | 0.66 | 0.20 | 86 | 1011.4 |
| 20260507232804 | 13 | 102 | 1.6 | 6.4 | 0.00 | 0.66 | 0.20 | 84 | 1011.4 |
| 20260507232104 | 13 | 91 | 3.2 | 6.4 | 0.00 | 0.66 | 0.20 | 85 | 1011.2 |
| 20260507231404 | 13 | 65 | 1.6 | 3.2 | 0.00 | 0.69 | 0.20 | 85 | 1011.2 |
| 20260507230704 | 13 | 91 | 3.2 | 4.8 | 0.00 | 0.69 | 0.20 | 85 | 1011.4 |
| 20260507230004 | 13 | 91 | 1.6 | 4.8 | 0.00 | 0.71 | 0.20 | 86 | 1011.5 |
| 20260507225604 | 13 | 88 | 1.6 | 4.8 | 0.00 | 0.74 | 0.20 | 86 | 1011.4 |
| 20260507224904 | 13 | 94 | 3.2 | 6.4 | 0.00 | 0.76 | 0.20 | 85 | 1011.4 |
| 20260507224418 | 13 | 90 | 3.2 | 6.4 | 0.00 | 0.76 | 0.20 | 85 | 1011.4 |
| 20260507223504 | 13 | 350 | 1.6 | 4.8 | 0.00 | 0.76 | 0.20 | 84 | 1011.5 |
| 20260507222803 | 13 | 107 | 0.0 | 8.0 | 0.00 | 0.79 | 0.20 | 85 | 1011.5 |
| 20260507222103 | 13 | 105 | 4.8 | 8.0 | 0.00 | 0.79 | 0.20 | 85 | 1011.5 |
| 20260507221404 | 12 | 116 | 3.2 | 6.4 | 0.00 | 0.79 | 0.20 | 86 | 1011.4 |